TimeEDT,TemperatureF,Dew PointF,Humidity,Sea Level PressureIn,VisibilityMPH,Wind Direction,Wind SpeedMPH,Gust SpeedMPH,PrecipitationIn,Events,Conditions,WindDirDegrees,DateUTC
12:53 AM,77.0,71.1,82,29.99,10.0,ESE,5.8,-,N/A,,Clear,120,2013-05-21 04:53:00
1:53 AM,75.0,71.1,87,30.00,10.0,SE,13.8,-,N/A,,Clear,140,2013-05-21 05:53:00
2:07 AM,75.0,71.1,87,29.99,10.0,SE,10.4,-,N/A,,Partly Cloudy,130,2013-05-21 06:07:00
2:53 AM,75.0,71.1,87,29.98,10.0,ESE,9.2,-,N/A,,Scattered Clouds,120,2013-05-21 06:53:00
3:04 AM,73.9,71.1,91,29.98,10.0,ESE,10.4,-,N/A,,Mostly Cloudy,120,2013-05-21 07:04:00
3:39 AM,73.9,70.0,87,29.98,10.0,SE,6.9,-,N/A,,Scattered Clouds,140,2013-05-21 07:39:00
3:53 AM,73.9,70.0,87,29.97,10.0,SE,8.1,-,N/A,,Clear,140,2013-05-21 07:53:00
4:53 AM,73.9,70.0,87,29.97,10.0,SE,10.4,-,N/A,,Clear,140,2013-05-21 08:53:00
5:53 AM,73.9,70.0,87,29.97,10.0,SE,10.4,-,N/A,,Clear,140,2013-05-21 09:53:00
6:53 AM,73.9,70.0,87,29.99,10.0,SSE,6.9,-,N/A,,Partly Cloudy,160,2013-05-21 10:53:00
7:53 AM,75.0,70.0,84,30.00,10.0,SE,8.1,-,N/A,,Partly Cloudy,140,2013-05-21 11:53:00
8:53 AM,77.0,69.1,76,30.02,10.0,ESE,8.1,-,N/A,,Clear,110,2013-05-21 12:53:00
9:53 AM,79.0,70.0,74,30.03,10.0,ESE,6.9,-,N/A,,Clear,110,2013-05-21 13:53:00
10:53 AM,80.1,70.0,71,30.04,10.0,SE,4.6,-,N/A,,Clear,140,2013-05-21 14:53:00
11:53 AM,81.0,70.0,69,30.03,10.0,SSE,4.6,-,N/A,,Clear,150,2013-05-21 15:53:00
12:53 PM,84.0,66.9,56,30.00,10.0,SE,4.6,-,N/A,,Clear,140,2013-05-21 16:53:00
1:53 PM,86.0,66.9,53,29.97,10.0,ESE,6.9,-,N/A,,Clear,120,2013-05-21 17:53:00
2:53 PM,87.1,63.0,44,29.95,10.0,SSE,5.8,-,N/A,,Clear,160,2013-05-21 18:53:00
3:53 PM,84.9,66.9,55,29.92,10.0,West,6.9,-,N/A,,Partly Cloudy,280,2013-05-21 19:53:00
4:53 PM,86.0,66.9,53,29.94,10.0,ENE,10.4,-,N/A,,Mostly Cloudy,60,2013-05-21 20:53:00
5:14 PM,79.0,69.1,72,29.95,10.0,NE,20.7,-,N/A,,Mostly Cloudy,40,2013-05-21 21:14:00
5:29 PM,77.0,71.1,82,29.97,1.8,NNE,21.9,31.1,0.11,Rain,Rain,30,2013-05-21 21:29:00
5:38 PM,75.0,72.0,90,29.98,0.5,ENE,17.3,28.8,0.37,Fog-Rain,Heavy Rain,70,2013-05-21 21:38:00
5:53 PM,75.9,73.0,91,29.97,1.5,ENE,20.7,-,0.52,Rain,Rain,70,2013-05-21 21:53:00
5:59 PM,75.9,73.0,91,29.97,3.0,East,20.7,-,0.01,Rain,Light Rain,80,2013-05-21 21:59:00
6:53 PM,75.9,-9999,N/A,29.94,10.0,ENE,9.2,-,0.01,,Scattered Clouds,70,2013-05-21 22:53:00
7:53 PM,77.0,-9999,N/A,29.96,10.0,East,9.2,-,N/A,,Scattered Clouds,100,2013-05-21 23:53:00
8:53 PM,77.0,-9999,N/A,29.95,10.0,East,8.1,-,N/A,,Clear,100,2013-05-22 00:53:00
9:53 PM,77.0,71.1,82,29.96,10.0,ESE,12.7,-,N/A,,Clear,120,2013-05-22 01:53:00
10:53 PM,75.9,71.1,85,29.96,10.0,ESE,10.4,-,N/A,,Clear,120,2013-05-22 02:53:00
11:53 PM,75.9,70.0,82,29.96,10.0,SE,11.5,-,N/A,,Clear,140,2013-05-22 03:53:00